Temperature
26 26 25 26 26 26 26 25 25 25 26 25 24 24 24 24 23 23 23 22 22 21 21 20 20 19 19 18 18 18 18 17 17 16 16 16 16 16 16 15 15 16 16 15
26 26 26 27 27 26 26 25 25 25 26 26 25 24 25 24 24 23 23 23 22 22 21 20 20 19 19 18 18 18 17 17 17 16 16 16 16 16 16 15 15 15 15 15
26 26 27 26 26 26 26 26 25 25 26 26 25 24 24 25 24 24 23 23 23 22 21 20 20 19 19 18 18 18 17 17 16 16 16 16 16 16 16 15 15 15 15 15
26 27 26 26 26 26 25 26 26 25 25 24 25 23 24 24 24 24 23 23 23 22 21 21 20 19 19 18 18 17 17 17 16 16 16 16 16 16 15 15 15 15 15 15
26 26 26 26 26 26 25 26 26 25 25 24 25 24 24 25 23 23 23 23 23 22 21 21 20 19 19 18 18 17 17 17 16 16 16 16 16 15 15 15 15 15 15 15
26 27 27 26 26 26 26 26 26 25 25 23 25 25 24 24 24 24 24 23 22 22 21 20 20 19 18 18 17 17 17 16 16 16 16 16 15 15 15 15 15 15 15 15
25 26 26 26 25 26 26 24 23 23 23 24 26 25 24 25 25 25 24 23 22 22 21 20 19 19 18 18 17 17 17 16 16 16 16 16 15 15 15 15 15 15 15 15
25 25 26 26 25 25 25 25 23 22 23 24 25 25 24 25 25 25 24 23 22 21 21 20 19 18 18 17 17 17 17 16 16 16 16 16 16 15 15 15 15 15 15 15
25 25 26 26 26 26 25 25 25 24 24 24 25 25 24 25 25 24 24 23 22 21 21 20 19 18 18 17 17 17 16 16 16 16 16 16 16 15 15 15 15 15 15 15
25 24 25 26 25 26 25 25 25 24 23 23 24 24 23 23 23 24 24 23 22 22 21 20 19 18 18 17 17 17 16 16 16 16 16 16 15 15 15 15 15 15 15 15
26 25 24 25 24 24 25 25 25 24 24 23 23 23 25 24 24 24 23 23 22 21 21 20 19 19 18 17 17 17 16 16 16 16 16 15 15 15 15 15 15 15 15 14
25 25 24 25 25 26 25 25 25 23 23 24 23 23 25 24 24 24 23 23 22 21 21 20 19 19 18 18 17 17 16 16 16 16 15 15 15 15 15 15 15 15 14 14
24 24 23 24 24 24 24 25 25 24 24 23 23 23 25 25 24 24 23 22 21 21 20 20 19 19 18 18 17 17 17 16 16 16 15 15 15 15 15 15 15 15 14 14
23 24 23 23 23 24 24 24 24 24 23 23 23 23 24 24 23 23 22 22 21 21 20 19 19 18 18 17 17 17 16 16 16 16 15 15 15 15 15 15 14 14 14 14
24 23 24 25 25 25 24 24 24 24 23 23 23 24 24 23 23 22 22 21 21 20 20 19 18 18 18 17 17 17 16 16 16 16 15 15 15 15 15 14 14 14 14 14
23 23 24 24 25 25 24 24 24 24 24 24 23 23 24 23 23 22 21 21 20 20 19 19 18 18 17 17 17 17 16 16 16 15 15 15 15 15 15 14 14 14 14 14
23 23 22 22 24 24 23 24 24 24 24 24 23 23 23 22 22 21 21 20 20 19 19 19 18 18 17 17 17 16 16 16 16 15 15 15 15 14 14 14 14 14 14 14
22 22 22 22 22 21 23 25 24 23 23 24 23 23 22 22 21 21 20 20 19 19 18 18 18 17 17 17 16 16 16 16 15 15 15 15 14 14 14 14 14 13 13 13
23 22 21 21 21 22 23 24 23 23 22 23 23 22 22 21 21 20 20 19 19 18 18 17 17 17 17 16 16 16 16 15 15 15 15 14 14 14 13 13 13 13 13 13
22 22 21 21 20 21 22 23 23 23 21 22 22 22 21 21 19 19 19 18 18 17 17 17 17 16 16 16 16 15 15 15 15 14 14 14 14 14 13 13 13 13 13 13
20 20 20 20 20 21 22 22 22 20 20 21 21 21 20 20 19 19 18 17 17 17 16 16 16 16 15 15 15 15 14 14 14 14 14 14 14 13 13 13 13 13 13 13
20 20 20 20 20 20 21 21 21 21 21 21 20 20 20 19 18 18 17 17 16 16 16 15 15 15 15 15 15 14 14 14 14 14 14 13 13 13 13 13 12 12 12 12
21 21 21 21 20 21 21 21 20 20 20 20 19 19 19 18 17 17 16 16 16 15 15 15 15 14 14 14 14 14 14 14 14 13 13 13 13 13 13 12 12 12 12 12
21 22 21 21 21 21 20 20 20 19 19 19 18 18 18 17 17 16 16 15 15 15 15 14 14 14 14 14 14 14 14 14 13 13 13 13 12 12 12 12 12 12 12 12
20 20 20 20 20 20 20 19 19 18 18 18 18 17 17 17 16 16 15 15 15 14 14 14 14 14 13 13 13 13 13 13 13 12 12 12 12 12 12 12 12 12 12 11
20 20 19 19 20 20 19 19 18 18 17 17 17 17 16 16 16 15 15 14 14 14 14 14 13 13 13 13 12 13 13 12 12 12 12 12 11 11 11 11 11 11 11 11
Wind_Speed
6 6 5 4 4 4 4 3 2 1 2 3 3 3 6 7 6 5 6 7 7 6 8 7 7 6 5 5 5 5 4 5 4 3 2 2 2 2 2 2 3 4 4 4
5 6 3 2 3 4 5 4 4 1 2 3 4 5 5 8 7 5 4 5 8 8 8 8 7 7 5 5 4 5 4 5 4 2 2 2 2 2 2 2 4 4 4 3
6 1 1 3 5 6 6 5 4 3 3 6 6 5 5 8 7 6 4 3 5 7 8 8 8 7 6 5 5 4 4 5 4 4 2 2 2 2 2 2 2 3 4 4
4 2 3 4 5 5 4 4 5 6 6 5 5 3 3 8 8 8 6 4 4 5 6 7 7 7 6 5 5 5 4 4 4 4 3 2 2 1 1 1 1 1 2 2
4 3 4 5 3 4 3 3 7 9 8 8 7 4 2 7 7 7 7 5 5 6 6 7 6 6 6 6 5 4 4 4 3 3 3 1 1 1 1 2 2 1 1 1
6 3 3 3 3 4 4 6 9 9 7 7 7 4 2 4 5 6 7 7 6 7 6 7 6 6 6 6 5 4 4 4 3 3 3 3 2 1 1 1 2 1 1 0
8 8 5 3 5 5 6 5 4 3 4 3 2 2 2 7 6 5 5 6 7 7 7 7 7 7 6 6 5 4 5 4 3 3 3 3 2 2 2 1 2 2 2 1
7 6 7 5 5 4 5 6 5 4 4 3 1 1 5 8 7 6 5 5 7 7 7 7 8 7 6 6 5 4 4 4 3 3 2 2 3 2 1 1 1 2 2 2
4 2 5 4 4 6 5 5 6 7 9 6 2 3 6 6 6 5 5 5 6 6 7 8 8 8 6 6 5 4 4 4 4 3 3 2 2 2 2 2 1 1 2 2
5 3 3 3 4 6 7 7 5 4 4 5 2 2 4 6 4 4 4 4 5 6 7 8 8 8 7 6 5 5 3 3 3 2 2 2 1 2 2 2 2 2 2 2
8 6 5 6 6 6 6 7 5 5 5 4 3 2 4 6 4 2 3 4 4 5 6 7 7 7 7 6 6 5 4 3 3 3 3 3 3 2 3 3 3 2 2 3
6 6 7 7 5 4 6 7 7 5 5 5 5 0 5 6 5 3 2 3 4 4 5 6 6 6 6 6 6 5 4 4 3 3 3 3 3 3 3 3 3 3 2 3
3 5 6 4 4 5 7 8 7 7 6 6 5 1 4 4 4 3 3 3 3 4 4 5 6 5 5 5 4 4 4 3 3 3 3 3 4 3 3 3 3 2 2 2
3 8 9 7 3 3 6 7 7 7 6 8 7 3 2 2 2 3 4 3 3 3 4 4 4 5 5 5 4 4 3 2 3 3 2 2 2 3 3 3 3 2 2 2
5 9 11 10 7 7 8 9 8 9 9 9 8 6 2 2 2 2 3 2 2 2 3 4 4 4 4 4 4 4 3 3 2 3 2 2 1 2 2 2 2 2 2 2
7 8 11 12 10 9 11 11 10 10 10 10 9 6 3 3 2 2 2 1 1 1 2 3 4 4 4 4 4 3 3 3 3 2 2 2 1 1 1 1 1 2 2 2
7 9 10 10 9 9 10 7 8 7 7 7 7 3 2 2 2 3 2 1 0 0 0 1 2 3 4 4 4 3 3 3 3 3 2 2 2 1 1 1 0 1 2 1
8 9 7 8 9 10 4 1 2 4 5 5 4 1 1 1 2 2 2 2 1 0 0 1 1 2 2 3 3 3 3 3 3 2 2 2 2 2 1 1 1 2 2 2
8 8 6 7 8 9 4 1 2 4 5 3 3 2 1 1 1 1 1 2 3 2 1 1 1 1 2 2 2 3 3 3 3 3 3 3 3 3 2 1 2 1 1 1
9 8 7 7 8 7 2 2 3 3 3 3 4 3 3 2 2 2 2 3 3 3 2 2 2 1 0 1 2 3 3 2 3 3 3 3 3 3 3 2 2 1 1 2
8 8 9 10 10 6 1 2 1 2 2 5 5 4 2 1 2 1 2 3 3 3 3 3 2 1 1 1 2 2 2 2 2 2 2 2 3 3 3 2 2 2 2 2
8 7 8 8 9 5 2 1 1 2 4 4 4 4 3 2 2 3 3 3 2 3 3 2 2 2 2 1 2 2 1 1 1 2 2 2 2 2 2 3 2 3 3 3
7 6 4 4 3 1 1 1 2 3 4 4 4 4 4 2 2 1 2 1 1 1 1 1 1 1 1 1 1 1 1 1 1 2 2 2 2 2 2 3 3 2 2 2
6 5 6 6 4 2 1 1 2 3 4 4 3 3 3 2 1 1 1 1 1 1 0 0 0 1 1 1 1 1 1 0 0 1 1 1 2 2 1 1 2 2 3 3
4 4 7 8 5 3 2 0 2 3 4 4 3 3 3 2 2 1 1 2 1 1 1 1 1 2 2 2 1 2 2 2 2 2 1 1 1 1 1 1 1 2 2 3
7 7 7 6 4 3 2 1 1 2 3 3 3 3 3 2 2 2 2 1 1 2 2 2 2 2 3 2 2 2 2 3 3 3 2 2 1 1 1 1 1 2 2 2
Wind_Direction
209 231 242 242 245 271 289 298 289 232 178 226 240 227 185 176 188 191 185 177 169 164 157 147 141 136 128 121 116 116 116 102 92 75 69 71 64 76 69 66 63 59 57 69
230 237 247 295 296 272 273 271 272 243 223 253 256 246 207 173 183 189 195 178 167 163 156 146 144 139 138 127 127 120 110 107 108 106 95 99 92 94 89 62 56 49 52 44
242 325 121 233 243 253 265 278 284 292 275 256 253 253 207 171 170 169 192 187 159 155 156 154 154 148 143 138 135 132 127 121 118 109 83 72 60 57 69 69 53 41 50 48
244 234 266 259 259 267 276 320 309 291 277 264 242 264 207 170 170 171 177 182 163 148 143 145 150 148 149 143 142 136 128 122 119 116 107 109 111 108 107 119 112 85 62 56
242 203 247 263 291 302 303 312 285 275 275 275 257 249 207 157 166 169 167 166 160 145 139 137 137 138 140 135 133 131 131 120 117 130 138 130 99 128 108 111 113 108 76 60
244 241 265 291 306 288 290 277 268 257 260 261 246 232 182 155 157 161 161 163 159 145 133 133 127 122 121 123 131 140 134 123 133 150 148 148 149 141 120 130 140 155 144 122
226 216 197 234 260 235 247 270 279 250 226 242 209 208 127 107 98 104 136 149 149 141 142 143 136 132 126 133 146 150 142 140 154 172 160 166 169 167 165 162 167 169 155 169
239 217 187 203 251 265 254 257 279 302 303 318 274 172 101 101 96 97 110 128 139 144 149 147 143 141 142 145 150 158 156 154 169 184 186 184 168 170 162 189 160 165 159 168
267 228 161 186 248 272 271 266 281 291 294 286 229 125 121 120 117 114 119 126 142 144 149 148 146 150 154 156 156 167 163 170 179 189 192 202 175 156 176 200 191 181 171 164
281 273 194 166 239 239 261 292 292 276 301 294 270 175 142 135 117 124 128 136 147 150 149 147 151 156 161 160 163 165 165 174 176 187 184 187 201 194 193 197 208 193 175 165
268 259 219 195 219 238 229 246 259 279 279 291 308 36 86 116 114 106 116 125 129 136 143 147 152 157 159 159 164 165 172 177 176 190 188 183 201 220 202 203 201 189 175 174
254 272 252 225 210 225 254 264 264 269 284 285 289 70 109 116 110 97 79 108 122 132 138 145 147 153 157 162 166 170 174 175 180 194 201 188 186 217 215 200 197 194 184 183
284 261 263 221 193 208 232 245 264 280 282 276 278 172 133 121 116 118 110 100 113 128 138 144 146 152 153 157 164 164 167 169 171 188 212 193 188 198 211 205 192 187 181 178
292 258 262 267 291 249 250 253 259 267 271 277 282 261 207 128 94 91 100 114 124 138 149 147 149 157 156 161 164 158 160 170 170 176 206 212 196 179 195 198 185 186 191 187
251 260 270 274 277 272 269 263 256 258 267 277 294 298 299 96 74 77 88 96 123 144 159 162 165 164 165 171 171 163 165 174 179 177 195 218 207 176 188 187 186 179 180 208
245 265 275 275 267 266 270 267 258 257 264 273 284 295 23 50 42 50 67 77 110 187 191 183 175 179 189 183 178 169 170 170 169 174 183 185 178 157 166 176 186 177 176 202
241 257 270 275 274 272 264 260 257 262 274 280 283 301 45 41 28 26 26 20 339 143 203 194 189 187 196 200 184 177 180 169 178 186 172 154 152 160 182 191 184 210 183 197
248 255 260 270 272 261 263 259 266 265 275 294 303 358 23 27 61 51 27 357 14 54 195 220 227 215 204 206 186 177 176 178 188 188 170 171 172 165 173 185 201 220 209 209
250 258 260 260 266 264 253 263 305 290 296 318 328 347 3 50 92 42 48 35 15 2 340 277 262 253 217 199 184 170 177 184 186 196 187 180 179 172 174 194 206 216 215 209
236 245 252 256 262 267 285 33 9 306 270 18 4 5 12 19 288 330 33 25 14 23 31 27 18 24 46 164 159 159 181 191 199 200 203 187 179 177 182 201 210 204 202 199
217 229 239 252 256 261 351 43 1 254 341 15 12 12 357 315 333 28 44 34 29 33 36 34 48 45 59 141 148 157 179 201 198 194 206 185 175 179 178 187 204 203 196 196
221 222 228 240 249 247 84 113 236 331 4 14 10 1 357 14 18 46 44 40 34 26 31 30 45 39 35 75 134 166 206 224 185 187 205 189 180 190 176 179 204 203 193 200
229 235 237 235 244 41 96 340 9 5 341 355 4 355 350 349 6 34 34 31 32 16 32 32 45 60 47 74 126 189 271 296 207 194 197 186 184 177 172 181 198 203 194 200
241 253 255 253 236 222 222 300 350 352 335 351 356 341 329 319 331 350 1 322 273 272 360 11 304 214 207 209 192 188 175 232 217 240 206 196 195 187 189 195 198 196 203 209
259 261 260 262 259 254 221 205 357 350 338 333 334 329 318 306 302 299 289 281 278 281 260 214 225 234 226 226 220 177 174 202 223 236 229 226 214 200 206 218 248 225 215 211
255 250 248 256 257 269 267 257 294 293 301 308 313 311 306 293 279 273 270 279 285 286 271 243 224 228 232 225 223 202 188 206 217 228 224 212 207 199 184 202 302 307 267 236
Height
1513 1515 1516 1514 1512 1513 1514 1517 1520 1517 1514 1516 1519 1520 1519 1521 1523 1524 1526 1527 1529 1532 1534 1536 1537 1539 1540 1541 1542 1543 1543 1544 1544 1545 1545 1546 1546 1547 1547 1547 1548 1548 1548 1548
1513 1515 1511 1509 1509 1511 1513 1518 1519 1515 1512 1514 1517 1517 1515 1517 1520 1522 1523 1525 1527 1529 1532 1534 1536 1538 1539 1541 1542 1542 1543 1544 1544 1544 1545 1546 1547 1547 1547 1547 1547 1548 1548 1548
1513 1511 1509 1511 1512 1513 1514 1516 1516 1516 1513 1512 1515 1519 1513 1513 1516 1520 1522 1523 1525 1527 1530 1532 1535 1537 1538 1540 1541 1542 1543 1543 1544 1544 1545 1546 1546 1547 1547 1547 1547 1548 1548 1548
1510 1509 1510 1511 1512 1512 1517 1511 1512 1514 1518 1520 1516 1529 1515 1510 1514 1517 1520 1522 1524 1526 1528 1531 1533 1535 1537 1539 1540 1541 1542 1543 1543 1544 1545 1545 1546 1547 1547 1547 1547 1547 1548 1548
1510 1508 1510 1512 1511 1511 1513 1511 1512 1513 1515 1519 1514 1521 1516 1508 1514 1515 1517 1520 1523 1525 1527 1530 1532 1534 1536 1538 1539 1541 1542 1542 1543 1544 1544 1545 1546 1546 1547 1547 1547 1547 1548 1548
1508 1508 1509 1510 1510 1511 1511 1512 1511 1510 1515 1527 1512 1517 1520 1510 1510 1511 1514 1518 1521 1524 1527 1529 1531 1534 1536 1537 1538 1540 1541 1542 1542 1543 1544 1545 1545 1546 1546 1547 1547 1547 1547 1548
1510 1507 1508 1510 1512 1511 1512 1520 1530 1530 1531 1524 1503 1510 1515 1505 1505 1508 1512 1516 1519 1522 1525 1528 1530 1533 1534 1536 1537 1539 1540 1541 1542 1542 1543 1544 1544 1545 1545 1546 1546 1546 1547 1547
1515 1515 1507 1508 1511 1514 1512 1517 1532 1540 1532 1521 1508 1512 1510 1503 1506 1509 1512 1515 1518 1521 1524 1527 1529 1531 1533 1535 1536 1537 1539 1540 1541 1541 1542 1542 1543 1544 1544 1545 1545 1546 1546 1546
1512 1513 1504 1506 1508 1510 1514 1514 1510 1521 1519 1522 1515 1508 1508 1505 1507 1510 1512 1515 1517 1520 1523 1525 1528 1530 1532 1534 1535 1536 1537 1538 1539 1540 1541 1541 1542 1542 1543 1543 1544 1545 1545 1546
1506 1514 1507 1507 1509 1509 1510 1510 1514 1521 1530 1531 1518 1512 1514 1510 1510 1510 1512 1514 1516 1519 1521 1524 1526 1529 1531 1532 1534 1535 1536 1537 1538 1538 1539 1539 1540 1541 1541 1542 1542 1543 1544 1544
1504 1511 1511 1509 1512 1511 1511 1512 1513 1516 1517 1530 1532 1523 1503 1506 1508 1509 1511 1513 1515 1518 1520 1523 1525 1527 1529 1531 1532 1534 1535 1535 1536 1537 1537 1537 1538 1539 1539 1540 1541 1541 1542 1543
1504 1508 1511 1507 1502 1503 1506 1508 1511 1523 1522 1517 1524 1523 1502 1504 1506 1509 1511 1513 1515 1517 1519 1522 1524 1526 1528 1529 1531 1532 1533 1534 1534 1535 1536 1536 1536 1537 1537 1538 1539 1540 1540 1541
1506 1510 1517 1515 1514 1507 1507 1506 1506 1510 1515 1518 1524 1522 1502 1503 1506 1508 1511 1513 1514 1516 1518 1520 1522 1524 1526 1527 1529 1530 1531 1532 1533 1533 1534 1534 1534 1535 1535 1536 1537 1538 1539 1540
1509 1509 1513 1520 1514 1507 1508 1506 1506 1511 1519 1518 1513 1511 1504 1504 1506 1508 1510 1512 1514 1515 1517 1519 1521 1523 1524 1526 1527 1528 1529 1530 1531 1531 1532 1532 1532 1533 1533 1534 1535 1536 1537 1538
1507 1509 1504 1501 1499 1501 1503 1505 1505 1508 1509 1514 1509 1507 1503 1503 1506 1508 1510 1511 1513 1514 1516 1517 1519 1520 1522 1524 1525 1526 1527 1528 1529 1529 1530 1530 1530 1531 1531 1532 1533 1533 1534 1535
1506 1507 1505 1503 1498 1499 1502 1501 1501 1503 1503 1504 1504 1505 1502 1503 1506 1507 1509 1510 1512 1513 1514 1516 1517 1519 1520 1522 1523 1524 1525 1526 1527 1527 1528 1528 1528 1529 1529 1530 1531 1531 1532 1533
1505 1506 1510 1509 1499 1501 1507 1499 1499 1500 1499 1501 1505 1504 1502 1504 1506 1507 1508 1510 1510 1512 1513 1514 1515 1516 1517 1519 1520 1521 1522 1523 1524 1525 1525 1526 1526 1526 1527 1528 1528 1529 1529 1530
1503 1505 1507 1508 1507 1517 1503 1491 1493 1497 1498 1498 1498 1499 1501 1503 1505 1507 1508 1509 1509 1510 1511 1512 1513 1514 1515 1516 1517 1518 1519 1520 1522 1522 1523 1523 1524 1524 1525 1525 1525 1526 1526 1527
1500 1504 1508 1509 1512 1506 1497 1493 1494 1498 1500 1497 1498 1499 1500 1502 1504 1505 1507 1508 1508 1509 1509 1509 1510 1510 1511 1513 1514 1515 1516 1518 1519 1519 1520 1520 1521 1522 1522 1523 1523 1523 1523 1524
1499 1501 1507 1508 1514 1513 1502 1494 1493 1497 1503 1497 1497 1499 1500 1501 1505 1505 1505 1506 1506 1506 1506 1506 1506 1507 1508 1509 1511 1512 1513 1514 1515 1516 1517 1518 1519 1519 1519 1520 1520 1521 1521 1521
1503 1504 1507 1509 1510 1502 1496 1495 1495 1507 1506 1499 1499 1499 1500 1502 1504 1504 1504 1504 1505 1504 1504 1504 1504 1505 1506 1507 1508 1509 1511 1512 1513 1514 1515 1515 1516 1516 1517 1517 1518 1518 1518 1519
1499 1502 1504 1505 1509 1507 1495 1496 1499 1501 1499 1498 1499 1500 1500 1501 1501 1502 1502 1503 1503 1503 1503 1502 1503 1503 1504 1505 1506 1507 1507 1509 1510 1511 1512 1512 1513 1514 1514 1515 1515 1515 1516 1516
1491 1493 1494 1496 1499 1494 1494 1496 1497 1498 1498 1499 1499 1500 1500 1500 1500 1501 1501 1501 1501 1501 1501 1501 1501 1501 1502 1503 1503 1504 1505 1506 1507 1508 1509 1509 1510 1511 1511 1512 1512 1512 1513 1513
1486 1487 1489 1491 1490 1492 1493 1495 1496 1497 1497 1498 1498 1498 1499 1499 1499 1499 1499 1500 1500 1499 1499 1499 1499 1499 1500 1500 1501 1502 1502 1503 1504 1505 1506 1506 1507 1507 1508 1508 1509 1509 1509 1509
1487 1487 1488 1489 1489 1490 1491 1493 1495 1495 1496 1496 1496 1497 1497 1497 1497 1497 1497 1497 1497 1497 1497 1497 1497 1497 1497 1498 1498 1499 1499 1500 1501 1502 1502 1503 1503 1504 1504 1504 1505 1505 1505 1506
1484 1486 1488 1489 1487 1489 1490 1491 1493 1493 1494 1494 1494 1494 1495 1495 1495 1495 1495 1495 1495 1494 1494 1494 1494 1494 1494 1495 1495 1496 1496 1497 1498 1498 1499 1500 1500 1500 1500 1500 1501 1501 1502 1502